[[{"header":{"parameterUnit":"m.s-1","parameterCategory":1,"la1":30.2991,"la2":30.254,"lo1":-89.0895,"lo2":-89.0444,"dx":0.0017,"dy":0.0017,"nx":28,"ny":28,"refTime":"2023-01-17T09:00:00:Z","depth":0,"parameterNumber":2,"parameterNumberName":"U-component_of_WINDS"},"data":[0,0,0,0,0,0,0,0,0,0,0,0,0,0,0,0,0,0,0,0,0,0,0,0,0,0,0,0,0,0,0,0,0,0,0,0,0,0,0,0,0,0,0,0,0,0,0,0,0,0,0,0,0,0,0,0,0,0,-2.4301,-2.4302,0,-2.437,-2.4371,-2.4371,-2.438,-2.4379,-2.4379,-2.4378,-2.4448,-2.4451,-2.4453,0,0,0,0,0,0,0,0,0,0,0,0,0,-2.4177,-2.4179,-2.4301,-2.4302,-2.4303,-2.437,-2.4371,-2.4372,-2.438,-2.4379,-2.4378,-2.4378,-2.4447,-2.445,-2.4453,0,0,0,0,0,0,0,0,0,0,0,0,0,-2.4237,-2.418,-2.4301,-2.4315,-2.4317,-2.437,-2.4371,-2.4372,-2.438,-2.4379,-2.4378,-2.4377,-2.4446,-2.445,-2.4454,-2.4497,0,0,-2.4465,-2.4467,0,0,0,0,0,0,0,0,-2.4233,-2.4241,-2.4312,-2.4314,-2.4317,-2.4365,-2.4353,-2.4414,-2.4381,-2.4356,-2.4378,-2.4377,-2.4421,-2.4427,-2.4442,-2.45,-2.4503,-2.4466,-2.4468,-2.4469,-2.447,0,0,0,0,0,0,0,-2.4229,-2.4238,-2.4328,-2.4313,-2.4316,-2.4318,-2.4325,-2.4364,-2.4394,-2.4358,-2.4359,-2.4367,-2.4422,-2.4439,-2.4444,-2.4504,-2.4465,-2.4469,-2.4471,-2.4473,-2.4599,-2.46,0,0,0,0,0,0,-2.4222,-2.4235,-2.4326,-2.433,-2.4272,-2.4321,-2.4329,-2.4351,-2.4393,-2.4399,-2.4368,-2.4367,-2.4433,-2.444,-2.4447,-2.4498,-2.4469,-2.4473,-2.4475,-2.4598,-2.4599,-2.4601,0,0,0,0,0,0,-2.422,-2.423,-2.4323,-2.4283,-2.4295,-2.4324,-2.4348,-2.4353,-2.4369,-2.4401,-2.4406,-2.4379,-2.4432,-2.4441,-2.4484,-2.4501,-2.4475,-2.4478,-2.4597,-2.4598,-2.46,-2.4603,0,0,0,0,0,0,-2.4216,-2.4229,-2.4246,-2.4283,-2.4297,-2.436,-2.4349,-2.4355,-2.4375,-2.4375,-2.4412,-2.4418,-2.4432,-2.4478,-2.4488,-2.4505,-2.4481,-2.4595,-2.4597,-2.4599,-2.4601,-2.4604,-2.4607,0,0,0,0,0,-2.4211,-2.4245,-2.4247,-2.4258,-2.4319,-2.4361,-2.4369,-2.4385,-2.4377,-2.4393,-2.4414,-2.4416,-2.4498,-2.4483,-2.4493,-2.4512,-2.4594,-2.4597,-2.4599,-2.46,-2.4604,-2.4607,0,0,0,0,0,0,-2.4209,-2.425,-2.4253,-2.4299,-2.4326,-2.4362,-2.4384,-2.4389,-2.4419,-2.4417,-2.4436,-2.4445,-2.4486,-2.4504,-2.4486,-2.4556,-2.4545,-2.455,-2.4542,-2.4546,-2.4549,-2.4543,-2.4484,0,0,0,0,0,-2.4214,-2.4245,-2.4279,-2.4316,-2.433,-2.4355,-2.4374,-2.4384,-2.4413,-2.4424,-2.4448,-2.4476,-2.4507,-2.4528,-2.4559,-2.4604,-2.4612,-2.4623,-2.4626,-2.4628,-2.4631,-2.4655,-2.466,-2.4609,-2.4609,-2.4609,0,0,-2.4225,-2.4251,-2.4269,-2.4317,-2.4339,-2.437,-2.4364,-2.4398,-2.4421,-2.443,-2.4471,-2.4489,-2.4521,-2.4565,-2.4585,-2.4581,-2.4647,-2.4631,-2.4633,-2.4635,-2.4658,-2.4663,-2.4667,-2.4611,-2.461,-2.461,0,0,-2.4259,-2.4282,-2.4315,-2.4338,-2.4371,-2.4387,-2.4395,-2.443,-2.4443,-2.4484,-2.4491,-2.4519,-2.4573,-2.4596,-2.4614,-2.4656,-2.4659,-2.4666,-2.468,-2.4703,-2.4707,-2.4711,-2.4724,-2.4729,-2.467,-2.467,-2.467,0,-2.4267,-2.4315,-2.4332,-2.4365,-2.4385,-2.4394,-2.4427,-2.4448,-2.449,-2.4503,-2.4498,-2.4566,-2.4589,-2.4637,-2.4647,-2.4662,-2.4671,-2.4661,-2.4705,-2.4709,-2.4713,-2.4726,-2.4731,-2.467,-2.467,-2.467,-2.467,0,-2.4323,-2.4355,-2.4378,-2.4418,-2.4441,-2.4473,-2.4495,-2.4516,-2.4524,-2.454,-2.4582,-2.461,-2.4645,-2.4658,-2.4667,-2.4707,-2.4703,-2.4701,-2.4691,-2.4718,-2.473,-2.4735,-2.4671,-2.4671,-2.467,-2.467,0,0,-2.4357,-2.4405,-2.4413,-2.4431,-2.4468,-2.4494,-2.4527,-2.4562,-2.4579,-2.4608,-2.4635,-2.4681,-2.4679,-2.47,-2.4711,-2.4731,-2.4761,-2.4727,-2.4728,-2.4731,-2.4805,-2.4805,-2.4811,-2.4763,-2.4764,-2.4765,-2.4802,0,-2.4395,-2.4453,-2.4469,-2.4518,-2.4548,-2.4557,-2.4585,-2.4611,-2.4627,-2.4654,-2.4673,-2.4704,-2.47,-2.4712,-2.4733,-2.4753,-2.4775,-2.475,-2.4788,-2.4789,-2.4778,-2.4817,-2.4818,-2.4851,-2.4807,-2.4808,-2.4809,0,-2.4446,-2.4475,-2.4527,-2.456,-2.4573,-2.4598,-2.463,-2.4657,-2.4686,-2.4696,-2.4719,-2.4728,-2.4762,-2.4751,-2.4797,-2.478,-2.4796,-2.4808,-2.481,-2.4813,-2.4799,-2.482,-2.4862,-2.4866,-2.4817,-2.4816,-2.4815,0,-2.4464,-2.4516,-2.4554,-2.4569,-2.4608,-2.4625,-2.4642,-2.4671,-2.469,-2.4719,-2.4732,-2.4764,-2.4782,-2.4806,-2.4823,-2.4814,-2.4868,-2.4858,-2.4876,-2.4876,-2.4886,-2.4885,-2.493,-2.4899,-2.4899,-2.4899,-2.4899,0,-2.4503,-2.4534,-2.4562,-2.4585,-2.4619,-2.4637,-2.4671,-2.4689,-2.4714,-2.474,-2.475,-2.4774,-2.4796,-2.4823,-2.4837,-2.4872,-2.4881,-2.4889,-2.4892,-2.4888,-2.4886,-2.4897,-2.4895,-2.49,-2.49,-2.49,-2.49,0,-2.4528,-2.4548,-2.4589,-2.4623,-2.4632,-2.4656,-2.4685,-2.4707,-2.4724,-2.4756,-2.4765,-2.4791,-2.4823,-2.4843,-2.4884,-2.4893,-2.4932,-2.4935,-2.4921,-2.4923,-2.4939,-2.4936,-2.4991,-2.4999,-2.4964,-2.4965,-2.4965,0,-2.4551,-2.4575,-2.4611,-2.4629,-2.4646,-2.4675,-2.4695,-2.4714,-2.4734,-2.4768,-2.4786,-2.4819,-2.4846,-2.4897,-2.4919,-2.495,-2.4953,-2.497,-2.4958,-2.4952,-2.4952,-2.4949,-2.4951,-2.4972,-2.4972,-2.4972,-2.4973,0,-2.4589,-2.4597,-2.4625,-2.4657,-2.468,-2.4706,-2.4731,-2.4746,-2.4768,-2.479,-2.4823,-2.4844,-2.4886,-2.4918,-2.4951,-2.4968,-2.4974,-2.4977,-2.4982,-2.4977,-2.4967,-2.4971,-2.4925,-2.4975,-2.4975,-2.4975,-2.4974,-2.4974,-2.4613,-2.4634,-2.4662,-2.4692,-2.4714,-2.4737,-2.4759,-2.4778,-2.4806,-2.4841,-2.485,-2.4884,-2.4912,-2.4957,-2.4975,-2.5001,-2.4999,-2.5007,-2.5009,-2.501,-2.501,-2.4964,-2.5008,-2.5008,-2.5008,-2.5008,-2.5007,0,-2.4649,-2.4668,-2.4696,-2.4731,-2.4755,-2.4759,-2.4787,-2.4806,-2.4836,-2.4862,-2.4888,-2.4925,-2.4956,-2.498,-2.5012,-2.5028,-2.5032,-2.5036,-2.5034,-2.5038,-2.5011,-2.5002,-2.5032,-2.5032,-2.5032,-2.5032,-2.5032,-2.5032,-2.4671,-2.4707,-2.4719,-2.4764,-2.4783,-2.4816,-2.4831,-2.4853,-2.4873,-2.4914,-2.4939,-2.4955,-2.498,-2.5013,-2.5041,-2.5048,-2.5058,-2.5062,-2.5068,-2.5043,-2.504,-2.5037,-2.5029,-2.5064,-2.5064,-2.5093,-2.5093,-2.5093]},{"header":{"parameterUnit":"m.s-1","parameterCategory":1,"la1":30.2991,"la2":30.254,"lo1":-89.0895,"lo2":-89.0444,"dx":0.0017,"dy":0.0017,"nx":28,"ny":28,"refTime":"2023-01-17T09:00:00:Z","depth":0,"parameterNumber":3,"parameterNumberName":"V-component_of_WINDS"},"data":[0,0,0,0,0,0,0,0,0,0,0,0,0,0,0,0,0,0,0,0,0,0,0,0,0,0,0,0,0,0,0,0,0,0,0,0,0,0,0,0,0,0,0,0,0,0,0,0,0,0,0,0,0,0,0,0,0,0,4.1328,4.1328,0,4.1359,4.1359,4.1359,4.1345,4.1344,4.1343,4.1343,4.1373,4.1374,4.1376,0,0,0,0,0,0,0,0,0,0,0,0,0,4.1255,4.1256,4.1328,4.1328,4.1328,4.1359,4.1359,4.136,4.1345,4.1344,4.1343,4.1342,4.1372,4.1374,4.1376,0,0,0,0,0,0,0,0,0,0,0,0,0,4.1286,4.1256,4.1327,4.1325,4.1325,4.1359,4.1359,4.136,4.1345,4.1344,4.1343,4.1342,4.1371,4.1374,4.1376,4.1413,0,0,4.1383,4.1384,0,0,0,0,0,0,0,0,4.1284,4.1289,4.1325,4.1325,4.1325,4.1347,4.1344,4.1378,4.1346,4.1338,4.1343,4.1341,4.1365,4.1368,4.1376,4.1415,4.1416,4.1383,4.1385,4.1385,4.1386,0,0,0,0,0,0,0,4.1282,4.1287,4.134,4.1325,4.1326,4.1322,4.1325,4.1351,4.1357,4.1338,4.1337,4.1341,4.1365,4.1374,4.1377,4.1416,4.1383,4.1385,4.1386,4.1387,4.149,4.1491,0,0,0,0,0,0,4.128,4.1286,4.1339,4.1341,4.1302,4.1324,4.1328,4.1341,4.1357,4.1358,4.1342,4.134,4.137,4.1374,4.1378,4.1425,4.1385,4.1388,4.1389,4.1489,4.149,4.1492,0,0,0,0,0,0,4.1279,4.1285,4.1338,4.1313,4.1319,4.1327,4.1342,4.1342,4.1351,4.136,4.1361,4.135,4.137,4.1374,4.1405,4.1425,4.1389,4.1391,4.1487,4.1489,4.1491,4.1518,0,0,0,0,0,0,4.1277,4.1285,4.1299,4.1313,4.1321,4.1365,4.1343,4.1344,4.1356,4.1354,4.1368,4.1369,4.1369,4.1402,4.1408,4.1428,4.1392,4.1485,4.1488,4.149,4.1515,4.152,4.1525,0,0,0,0,0,4.1274,4.1304,4.13,4.1306,4.1339,4.1366,4.1371,4.137,4.1357,4.1372,4.1378,4.1369,4.1422,4.1405,4.1411,4.1433,4.1484,4.1487,4.149,4.1513,4.1519,4.1525,0,0,0,0,0,0,4.1291,4.1306,4.1301,4.1337,4.1351,4.1364,4.1382,4.1377,4.1394,4.1391,4.139,4.1393,4.1426,4.1432,4.1413,4.1471,4.1451,4.1455,4.1466,4.1472,4.1477,4.1476,4.1394,0,0,0,0,0,4.1299,4.132,4.1332,4.1362,4.137,4.1375,4.1387,4.1386,4.1399,4.1405,4.1413,4.1426,4.1446,4.1459,4.1478,4.1515,4.1519,4.1533,4.1538,4.1542,4.1546,4.1569,4.1576,4.1502,4.1502,4.1502,0,0,4.1315,4.1326,4.134,4.1366,4.1377,4.1399,4.138,4.1404,4.1421,4.1408,4.1439,4.1445,4.146,4.1495,4.1511,4.1501,4.1568,4.1546,4.1549,4.1551,4.1573,4.158,4.1586,4.1504,4.1504,4.1503,0,0,4.1358,4.1367,4.1395,4.1406,4.1423,4.1426,4.1433,4.1448,4.1452,4.1483,4.1475,4.1494,4.1528,4.1539,4.155,4.1598,4.1591,4.1604,4.163,4.1652,4.1658,4.1663,4.1683,4.169,4.1608,4.1608,4.1608,0,4.1376,4.141,4.141,4.1435,4.1448,4.1439,4.1467,4.1478,4.1499,4.1508,4.1497,4.1541,4.155,4.1589,4.1601,4.1609,4.1617,4.1603,4.1657,4.1663,4.1668,4.1686,4.1693,4.1609,4.1609,4.1609,4.1609,0,4.1433,4.1457,4.1477,4.15,4.1515,4.1541,4.1545,4.156,4.1558,4.1562,4.1595,4.1605,4.1627,4.1636,4.1633,4.1675,4.1669,4.1657,4.1638,4.1676,4.1694,4.1701,4.1612,4.1611,4.1611,4.161,0,0,4.1487,4.1511,4.1518,4.153,4.1548,4.1566,4.1593,4.1615,4.1629,4.1643,4.1667,4.1696,4.1687,4.1698,4.1697,4.1716,4.1757,4.1702,4.1703,4.1714,4.1806,4.1816,4.1825,4.1751,4.1752,4.1753,4.1806,0,4.1533,4.1581,4.1582,4.1626,4.1649,4.1641,4.1665,4.1679,4.1684,4.1704,4.1709,4.1731,4.1715,4.1723,4.1741,4.1748,4.1775,4.1743,4.1774,4.1775,4.1773,4.1833,4.1844,4.1893,4.1812,4.1813,4.1814,0,4.1593,4.1612,4.1659,4.1676,4.1686,4.1707,4.1729,4.1747,4.1763,4.1765,4.1779,4.1775,4.1803,4.1781,4.182,4.1799,4.1811,4.1816,4.1818,4.1822,4.1799,4.1842,4.1908,4.1916,4.1824,4.1824,4.1823,0,4.1631,4.1668,4.1702,4.1711,4.1731,4.1746,4.1755,4.177,4.1784,4.1802,4.1811,4.1832,4.1844,4.186,4.1862,4.1846,4.1902,4.188,4.1906,4.1906,4.192,4.1919,4.1991,4.1924,4.1924,4.1923,4.1923,0,4.1683,4.1713,4.172,4.1741,4.1774,4.1774,4.1807,4.1814,4.1828,4.185,4.1843,4.1864,4.1864,4.1886,4.1887,4.192,4.1925,4.1928,4.1929,4.1931,4.1931,4.194,4.1938,4.1925,4.1925,4.1925,4.1924,0,4.1733,4.1738,4.1775,4.1791,4.1796,4.182,4.1833,4.1854,4.1858,4.1887,4.1893,4.1901,4.1926,4.1929,4.1957,4.1958,4.1999,4.1995,4.1995,4.1995,4.2022,4.2021,4.2105,4.2117,4.2039,4.204,4.204,0,4.1767,4.179,4.1809,4.1825,4.1835,4.1859,4.1874,4.1875,4.189,4.1911,4.1929,4.1953,4.1974,4.2014,4.2022,4.2044,4.2042,4.2069,4.2045,4.2047,4.2045,4.2045,4.2048,4.2075,4.2076,4.2076,4.2077,0,4.1828,4.183,4.1852,4.1876,4.1895,4.1913,4.193,4.1942,4.1946,4.1964,4.199,4.2006,4.2036,4.2061,4.2084,4.2092,4.2086,4.2084,4.2092,4.2095,4.2096,4.2099,4.2011,4.2083,4.2082,4.2082,4.2082,4.2081,4.1873,4.1894,4.1912,4.1937,4.1951,4.1967,4.1988,4.1996,4.2018,4.2044,4.2042,4.2072,4.2088,4.2118,4.2128,4.2151,4.2142,4.2152,4.2156,4.2159,4.2163,4.209,4.2155,4.2155,4.2154,4.2154,4.2154,0,4.1937,4.1948,4.1971,4.1997,4.2017,4.2009,4.2028,4.2045,4.2072,4.2088,4.2108,4.2139,4.2164,4.2174,4.2198,4.2215,4.2213,4.2221,4.2221,4.2224,4.2168,4.2161,4.2223,4.2223,4.2223,4.2223,4.2223,4.2223,4.1972,4.2009,4.2013,4.2056,4.2066,4.2096,4.2108,4.2124,4.2137,4.2172,4.2193,4.22,4.2213,4.2239,4.2261,4.2263,4.2274,4.2284,4.2286,4.2234,4.2227,4.2221,4.2214,4.2286,4.2286,4.2339,4.234,4.234]}]]